Location: Coll
(42.4728°N, 0.7714°E)
Time: 12:51:35
(UTC+00:00)

Cosmos 1892 Rocket - Pass Details

Date: 23 October 2020
Orbit: 607 x 632 km, 82.5° (Epoch: 30 November)

Event Time Altitude Azimuth Distance (km) Brightness Sun altitude
Rises 05:41:30 0° 194° (SSW) 2,851 6.9 -7.7°
Reaches altitude 10° 05:43:43 10° 197° (SSW) 1,953 6.0 -7.3°
Maximum altitude 05:48:00 65° 279° (W) 674 3.5 -6.6°
Drops below altitude 10° 05:52:21 10° 2° (N) 1,979 6.1 -5.8°
Sets 05:54:37 0° 6° (N) 2,892 6.9 -5.4°
